Wind_Speed
20 19 19 18 18 17 17 16 16 17 17 17 16 16 15 14 14 13 13 12 11 11 9 8 6 4 4 4 4 5 5 5 6 6 6 6 7 8 9 10 11 11 11 12 13 13 14 15 16 16 17 18 18 18 17 17 17 18 18 18 19 19 20 19 18 18 19 20 21 20 20 20 20 21 23 24 23 22 21 22 24 25 25 24 23
21 19 19 19 19 18 17 17 17 17 17 17 17 16 15 14 13 13 12 11 11 10 9 7 5 4 3 4 5 6 6 6 6 7 7 7 8 9 11 12 12 12 13 14 14 15 15 16 17 18 19 20 20 20 19 19 18 18 19 20 21 21 22 21 19 18 19 20 21 21 22 21 21 21 22 23 22 21 20 21 22 24 24 22 21
20 20 20 20 19 19 19 18 18 17 17 17 17 15 15 14 13 12 11 11 10 9 8 6 4 3 2 3 4 5 7 7 7 7 7 7 8 10 12 13 15 15 16 16 16 17 17 18 18 19 20 20 21 21 21 20 20 20 20 21 22 23 24 23 22 20 19 19 18 20 21 21 21 22 22 22 22 22 23 23 22 22 22 21 21
21 21 22 20 20 20 19 19 18 17 17 16 16 15 15 14 13 12 10 9 8 7 6 5 3 1 1 2 4 5 7 8 7 7 8 9 10 12 14 15 16 18 18 19 19 19 19 19 19 19 19 19 20 20 21 21 21 21 20 20 20 22 24 24 23 22 20 18 15 17 19 18 19 21 21 21 21 22 25 26 25 23 22 21 23
23 23 23 22 21 21 20 19 18 17 17 15 15 14 14 14 13 12 10 8 8 6 5 4 3 2 2 2 3 4 5 6 7 7 9 10 11 13 16 18 18 19 20 20 21 20 20 20 19 18 18 18 19 20 21 21 21 22 22 21 20 21 22 23 23 23 24 21 18 18 16 15 18 19 20 20 20 21 23 24 25 26 24 24 24
23 23 24 22 22 22 20 19 18 18 17 15 14 13 13 13 13 12 10 9 7 6 6 5 4 3 1 0 1 2 3 6 8 9 11 13 14 16 19 20 20 20 20 20 20 21 20 20 20 20 20 20 21 22 22 22 23 23 23 23 22 22 22 22 24 25 25 25 24 23 21 20 21 21 18 18 18 19 20 21 24 26 27 26 26
23 23 24 23 22 22 21 19 18 18 16 15 14 14 13 14 14 12 10 8 7 6 6 5 3 2 1 2 3 3 5 7 10 13 15 16 17 18 19 19 19 19 19 19 20 21 21 21 21 22 23 24 25 26 26 25 24 23 22 22 23 23 23 22 24 25 25 27 27 25 25 26 25 25 23 21 18 19 20 20 21 23 26 28 29
24 23 23 24 23 22 21 19 18 17 16 15 15 15 13 13 13 11 9 8 7 6 5 3 2 2 3 4 5 6 7 10 13 15 17 18 18 18 16 16 17 18 19 20 20 21 21 21 22 23 24 26 27 28 28 27 26 24 23 22 22 22 23 22 23 23 24 27 28 27 28 28 27 28 28 25 22 21 21 21 21 21 24 27 30
25 23 23 24 23 22 21 19 18 18 17 16 16 15 13 12 12 11 9 8 6 5 4 3 3 4 5 7 7 8 10 12 14 15 16 18 18 17 16 16 17 17 18 19 20 20 20 21 22 23 25 26 27 28 28 28 27 26 25 24 22 21 21 22 23 24 23 23 26 27 28 28 27 28 27 25 25 25 24 25 26 25 25 26 28
24 23 23 25 24 22 20 19 18 18 18 17 16 15 13 12 11 10 9 7 5 4 4 4 5 6 8 10 11 11 13 13 14 15 17 18 18 17 17 17 17 17 18 19 19 19 20 21 22 23 25 25 26 26 27 27 26 26 25 23 21 20 21 22 23 25 24 23 24 24 26 27 27 29 28 26 25 25 26 29 30 28 28 28 27
24 22 23 24 23 21 20 20 19 18 18 17 15 14 13 11 10 9 8 6 5 5 5 5 7 9 11 12 13 14 14 14 14 16 18 18 17 17 17 18 18 18 18 18 18 18 19 20 22 23 23 24 24 25 26 26 25 24 23 21 19 19 21 23 23 23 23 24 24 23 24 26 27 30 30 27 26 26 28 30 31 30 30 30 28
26 24 23 24 24 22 22 22 20 19 17 15 14 13 11 10 8 8 7 6 5 5 6 8 9 12 13 14 15 15 15 15 16 18 20 19 18 19 19 19 18 17 17 16 16 17 18 19 20 21 22 23 24 25 26 25 23 21 20 19 18 18 19 21 22 21 20 21 23 24 25 26 28 30 28 26 27 28 29 32 34 32 31 31 31
28 26 25 25 25 23 23 23 21 19 17 15 13 11 10 9 7 7 7 5 6 7 8 11 13 14 15 15 15 15 16 16 18 20 21 20 20 21 21 20 18 16 15 15 16 17 18 19 20 21 21 22 23 24 24 23 21 20 19 19 18 17 17 18 18 19 19 20 22 22 23 24 26 28 27 26 27 29 32 35 35 32 31 32 32
28 27 26 25 25 24 23 23 21 19 17 14 12 10 9 9 7 7 7 6 7 9 12 14 15 15 15 15 15 16 17 18 19 20 20 20 20 20 20 19 17 15 15 16 17 17 17 18 19 20 20 21 22 22 22 22 21 20 18 18 18 17 17 17 17 17 17 19 20 20 21 21 22 23 23 23 23 26 30 33 32 31 31 31 30
27 26 27 25 24 23 21 22 21 19 17 14 12 10 9 8 8 8 7 8 10 13 14 15 15 16 17 16 15 16 17 18 18 18 18 18 18 17 17 16 15 14 15 16 16 17 17 18 18 18 19 19 20 20 21 21 22 21 19 17 18 18 16 16 16 16 17 17 18 19 20 21 21 20 20 20 21 23 27 28 30 32 29 25 26
29 27 28 26 24 24 22 22 21 18 16 14 12 10 8 8 8 8 7 10 13 14 15 15 16 18 18 16 16 16 16 16 16 15 15 16 16 15 15 14 13 13 15 15 15 16 16 17 17 17 18 18 18 19 19 20 20 20 19 17 17 18 17 15 15 15 16 17 18 19 20 20 20 20 20 20 21 22 25 27 30 32 29 24 24
31 28 27 25 25 25 23 22 21 19 17 14 11 9 8 7 8 8 10 13 15 15 16 18 20 19 17 15 14 14 13 13 13 13 13 14 15 15 12 12 12 12 14 15 14 14 15 16 17 16 17 18 18 18 18 18 19 18 17 16 17 17 17 17 16 15 15 17 18 17 17 19 20 20 19 19 20 20 23 27 30 31 30 27 25
30 29 28 27 27 26 23 22 22 20 18 15 12 10 8 8 10 13 15 17 17 18 19 21 20 17 14 13 13 12 12 11 11 11 11 12 13 11 9 10 12 12 13 13 13 14 15 16 16 16 17 18 17 17 17 18 18 18 17 16 17 18 17 17 16 16 16 16 17 15 13 14 15 17 17 17 19 19 20 24 27 28 29 30 29
30 31 31 31 30 28 26 24 21 18 16 13 11 10 10 10 11 14 16 18 20 21 20 18 16 13 13 12 10 10 10 10 11 10 9 10 10 9 7 9 11 11 12 12 13 14 15 15 16 16 17 17 17 17 17 17 17 17 18 17 17 18 17 16 16 16 16 16 16 15 13 12 12 12 14 15 16 17 17 21 25 27 28 29 30
32 32 30 31 30 28 26 24 20 16 13 11 9 10 10 10 12 15 18 21 22 20 18 15 13 12 11 10 9 10 10 10 9 8 8 9 8 7 7 9 11 11 11 11 13 14 14 15 16 16 17 17 18 18 17 16 16 17 18 17 17 17 17 16 16 16 17 17 17 16 14 14 14 14 15 15 16 17 17 20 23 28 31 30 29
33 33 33 32 29 26 24 22 18 15 12 9 7 7 10 13 17 20 20 19 18 16 15 13 11 10 10 9 9 9 9 8 6 6 7 7 6 7 7 8 10 9 10 11 12 13 14 15 16 17 19 19 18 18 17 17 17 17 17 17 16 17 16 16 15 16 17 19 18 16 15 14 14 15 16 15 15 17 18 21 23 25 28 29 28
32 34 35 33 29 26 23 20 16 12 9 8 8 10 13 17 19 18 14 12 11 11 11 10 9 9 8 8 7 6 5 5 4 5 5 4 5 6 6 8 9 9 10 11 12 13 14 15 16 18 19 19 19 18 18 18 18 18 18 18 18 17 17 16 16 17 18 19 19 17 16 16 15 16 16 14 12 12 12 15 20 22 22 23 25
32 31 30 29 25 22 19 16 13 10 9 9 9 11 14 14 12 10 8 8 7 7 7 7 8 7 7 7 5 4 3 3 2 2 2 3 5 6 7 9 10 10 11 12 13 15 15 15 15 17 18 18 19 18 19 19 19 19 20 19 19 18 18 17 17 18 18 18 18 18 18 17 16 17 17 13 11 10 9 8 10 14 16 18 22
30 28 26 24 21 17 15 13 11 10 11 9 9 10 11 9 6 6 6 7 6 5 5 6 6 7 6 5 4 2 1 1 1 1 2 4 6 7 8 10 12 11 12 12 13 14 14 15 15 16 17 17 18 18 19 19 19 19 20 20 20 19 19 19 19 19 19 19 19 19 18 17 15 16 16 13 10 11 11 10 9 9 10 13 16
28 26 23 21 19 16 15 12 11 11 11 10 9 9 8 7 6 6 7 8 8 6 6 6 7 7 6 4 4 4 3 2 2 2 4 5 8 10 11 12 12 13 13 13 13 13 13 14 15 16 16 16 17 19 20 20 20 21 21 20 21 21 21 21 20 20 20 20 20 19 18 18 16 16 16 14 12 11 11 11 9 7 7 8 11
28 26 23 22 19 17 14 12 11 12 12 11 10 8 8 9 9 8 9 9 8 6 5 6 6 6 6 6 6 5 4 3 3 4 6 9 12 13 12 12 12 13 13 12 12 13 13 13 14 14 15 15 17 18 20 21 22 21 21 21 22 22 22 22 22 22 21 21 21 21 20 20 19 18 17 16 14 12 10 9 8 7 7 8 11
29 27 26 23 19 16 15 14 13 13 13 11 10 10 11 12 10 8 9 8 7 5 5 6 6 7 8 7 6 5 5 6 7 10 12 14 14 12 11 11 11 11 11 12 12 12 12 12 12 13 13 14 14 15 18 20 20 20 20 20 21 21 21 21 22 22 22 22 22 23 23 23 23 22 20 18 16 14 12 10 9 8 9 10 11
31 28 24 21 19 19 19 16 14 14 13 12 12 13 13 11 9 9 8 6 6 5 6 7 8 9 9 8 8 8 8 11 13 14 15 14 12 11 11 11 10 10 11 11 11 11 11 11 12 12 11 11 12 13 16 19 20 20 20 20 20 19 18 19 21 22 22 23 23 23 24 24 24 24 24 22 19 17 15 14 11 9 8 9 10
29 26 23 22 23 23 20 16 15 16 14 13 14 13 11 9 8 7 6 5 6 6 8 9 10 11 10 10 11 12 13 14 15 15 14 12 11 11 10 10 10 11 11 11 10 10 10 10 10 10 10 10 11 13 17 18 19 19 20 21 20 19 18 18 19 21 23 23 23 24 25 25 25 25 24 24 23 21 18 16 15 13 11 10 9
29 27 25 24 24 23 20 18 18 17 15 15 14 13 10 9 7 6 6 6 6 8 10 11 13 14 13 14 15 15 15 15 14 13 12 11 10 10 10 10 10 11 11 11 10 10 10 11 11 11 11 11 14 17 19 19 19 19 20 20 20 20 20 19 20 21 23 24 24 25 25 26 27 27 26 26 26 26 25 22 20 18 16 14 12
31 29 27 26 25 24 21 20 19 17 15 14 13 11 10 8 8 8 7 6 8 9 11 13 15 16 15 14 15 15 14 14 13 12 11 11 10 10 10 10 10 10 11 11 11 11 12 13 14 14 15 16 19 20 20 20 20 20 20 20 20 21 21 21 22 23 24 24 24 25 26 27 28 29 29 28 28 29 29 28 25 22 19 18 16
32 31 30 28 26 24 22 21 20 18 15 13 11 10 8 8 8 7 5 8 10 10 12 14 16 16 15 14 14 14 13 13 12 11 11 10 10 9 9 9 9 10 10 10 11 12 13 14 15 15 17 19 21 20 20 20 20 20 19 19 19 19 19 20 21 22 22 22 23 24 24 25 27 27 28 29 28 28 28 28 27 26 24 22 20
32 31 31 29 27 25 23 22 21 18 15 12 10 9 7 7 8 5 5 10 11 11 13 15 16 15 14 14 13 13 13 12 11 11 11 10 9 9 9 9 9 9 9 9 11 12 13 13 14 15 16 18 19 20 19 19 19 19 19 18 18 18 18 18 19 19 19 19 21 22 22 23 24 24 26 27 26 25 25 25 25 25 25 24 22
32 31 30 29 27 25 23 22 19 18 17 13 10 8 8 8 8 4 7 12 12 11 13 14 15 14 14 14 13 12 12 12 12 12 11 10 10 10 10 10 9 9 9 10 11 12 12 13 14 15 15 17 19 20 19 19 19 19 19 19 19 18 19 19 19 20 20 20 21 22 23 24 24 24 25 26 25 24 23 23 23 23 24 23 23
31 31 30 28 27 25 24 22 19 18 18 15 10 8 8 9 8 5 10 14 13 12 13 14 14 14 13 13 12 11 12 12 12 11 10 10 10 10 11 10 9 9 10 11 12 12 13 14 15 15 15 17 19 19 19 19 19 19 19 19 20 20 20 21 21 21 22 22 23 23 25 26 26 26 26 25 23 22 21 21 23 23 23 23 24
32 31 30 28 27 25 24 22 20 19 18 14 10 8 10 11 9 8 13 15 13 12 13 13 14 13 14 14 12 12 12 12 11 10 9 10 10 10 10 10 9 10 11 11 12 13 14 15 15 15 16 18 20 19 19 19 19 18 18 19 19 20 20 21 22 23 23 23 23 24 24 24 24 26 26 25 24 21 18 19 21 22 23 23 24
31 31 29 28 26 24 23 22 20 20 17 12 8 9 11 11 10 12 17 15 12 12 13 14 15 15 15 14 13 11 11 10 9 8 9 10 10 10 11 10 9 10 11 12 13 15 16 17 17 18 19 20 22 22 21 21 20 20 19 20 20 20 21 22 23 24 24 25 26 26 25 23 23 23 24 23 23 21 19 19 20 21 20 21 22
31 30 28 26 25 25 23 20 19 20 15 9 8 9 11 11 13 17 17 15 14 15 16 17 17 16 15 14 12 10 10 10 10 10 10 11 11 11 12 11 10 11 13 15 15 17 18 19 19 20 20 21 21 22 21 21 22 22 22 22 22 22 23 24 25 25 26 27 28 29 28 27 26 25 23 22 22 21 20 20 21 21 20 21 23
30 30 28 26 24 24 22 19 20 19 13 9 9 9 10 13 16 18 17 17 18 18 18 18 17 16 15 13 12 11 10 11 11 12 13 13 13 13 13 12 12 13 15 16 16 17 18 19 19 19 19 19 20 21 21 21 21 21 22 22 22 23 25 25 25 26 27 28 29 30 30 30 29 27 26 24 23 23 22 21 21 21 22 23 24
28 27 27 27 26 24 22 20 19 16 13 11 9 9 12 16 18 18 18 19 19 18 18 17 16 16 15 14 13 12 12 12 13 14 14 14 14 14 13 12 13 14 15 15 15 15 17 18 18 18 19 20 20 21 21 21 21 21 21 21 22 24 25 24 24 26 26 28 28 29 29 29 28 27 27 27 26 25 24 23 22 23 23 22 21
28 27 28 29 26 23 21 19 17 14 12 11 10 11 16 19 19 19 19 19 19 18 18 17 16 16 15 14 14 13 13 14 14 14 15 15 14 13 12 13 13 13 14 14 15 15 15 17 18 18 19 21 21 21 21 21 21 21 21 21 23 24 24 23 24 25 26 27 27 27 27 26 25 25 26 26 27 27 26 26 25 23 20 18 17
31 31 32 30 26 22 20 19 17 14 13 12 12 16 19 20 19 19 20 19 19 19 18 17 17 16 15 15 15 14 14 15 14 13 13 14 13 12 12 12 12 12 13 14 15 15 16 17 19 20 21 22 22 22 22 22 22 23 23 24 25 25 25 24 25 26 26 26 25 24 24 23 22 23 24 24 25 25 26 27 26 23 20 18 17
34 34 32 27 24 23 22 20 17 14 12 12 14 18 21 21 20 20 20 19 19 18 18 17 17 17 16 15 15 15 14 14 13 12 12 13 13 12 12 12 11 11 12 14 16 16 17 19 21 22 23 24 24 24 24 24 25 25 26 26 26 27 26 26 27 27 25 24 23 22 21 20 20 21 22 23 24 24 25 26 26 25 24 23 23
35 34 29 25 25 25 21 19 17 14 12 13 16 18 21 21 20 20 20 20 19 18 18 18 17 17 16 16 15 14 14 13 12 11 11 12 12 11 12 12 11 11 13 15 17 17 18 20 22 23 24 24 25 25 25 25 25 25 26 26 26 27 26 26 26 26 24 22 21 20 20 19 20 20 21 22 23 25 25 25 25 25 26 26 27
32 31 28 27 27 24 20 19 18 15 14 16 17 17 19 20 20 20 20 19 19 19 18 18 17 17 16 15 15 14 13 12 12 11 10 11 11 11 12 12 12 13 14 17 18 18 19 20 21 22 23 24 24 24 24 25 24 24 25 25 25 25 25 24 24 24 23 22 20 19 20 21 22 22 22 23 25 26 26 25 25 26 26 28 30
33 32 29 28 27 24 21 21 20 17 17 18 18 17 17 19 20 20 19 19 19 19 18 18 17 16 15 15 14 14 14 13 12 11 10 11 11 11 13 13 13 14 16 18 18 19 19 20 20 21 22 22 22 22 22 23 23 23 23 23 23 23 23 22 22 22 21 20 20 20 20 21 23 24 24 26 27 27 26 26 26 27 27 29 30
34 32 30 28 26 24 23 22 20 19 18 19 19 18 19 20 20 20 19 19 18 18 18 17 17 16 15 15 14 14 14 13 13 12 12 13 13 13 14 15 15 15 17 18 18 18 19 20 20 21 22 22 21 21 22 22 22 22 23 23 23 23 23 22 22 21 21 20 20 21 21 21 22 23 24 26 27 28 28 29 29 29 29 29 30
33 32 30 28 26 24 23 22 21 21 20 19 19 19 20 20 20 19 19 19 18 18 17 17 16 16 16 15 14 14 15 14 14 14 14 14 15 14 15 16 16 16 16 17 18 18 19 20 20 21 22 22 22 22 22 22 22 21 22 22 23 24 24 24 23 22 21 21 21 21 22 23 23 24 25 27 28 29 30 31 31 31 31 31 30
34 32 30 28 26 24 23 22 22 22 20 20 20 20 20 20 20 19 19 19 19 18 17 17 17 16 16 16 15 15 15 15 15 16 16 16 16 15 15 16 16 16 16 17 18 19 20 20 20 21 22 23 23 23 23 22 21 21 22 23 24 25 25 24 23 22 21 22 22 24 25 26 27 28 29 30 31 31 31 31 31 31 32 32 32
34 32 30 27 25 23 22 21 21 21 21 21 21 21 21 20 19 19 18 17 18 18 17 17 17 17 17 17 17 17 16 16 16 17 17 18 18 17 15 15 15 16 16 17 18 19 20 19 19 21 22 23 23 23 22 21 20 21 21 22 24 25 24 24 23 22 22 24 26 27 29 29 29 30 31 31 31 31 31 32 31 31 32 32 32
34 33 31 28 25 23 22 21 22 22 22 22 22 23 22 21 20 19 17 15 15 17 17 18 18 17 18 17 17 17 17 16 17 16 16 17 17 17 17 16 16 16 17 17 18 19 19 19 19 20 21 22 22 22 21 20 20 20 21 21 22 23 24 24 23 23 24 27 29 29 30 29 29 29 29 28 29 29 29 30 30 30 31 31 30
Wind_Direction
185 186 186 182 182 181 178 178 177 176 173 170 170 169 170 173 176 178 181 184 187 190 196 198 200 207 226 250 271 286 306 320 331 334 325 319 314 314 317 320 323 320 315 314 314 315 316 317 315 312 310 309 308 307 306 304 302 299 296 293 289 288 287 286 287 288 289 288 285 282 279 275 272 270 268 264 261 259 253 248 248 246 244 242 242
184 184 183 180 181 179 174 173 172 173 171 169 171 171 170 172 175 178 180 183 184 186 189 190 196 214 238 268 289 300 317 329 338 339 334 327 315 310 312 317 323 323 322 322 322 323 324 324 322 319 316 313 310 308 307 305 301 299 296 295 293 291 290 288 289 289 289 290 292 291 287 284 279 272 267 263 259 257 254 251 248 246 246 242 239
180 180 181 181 179 174 170 169 169 170 172 171 171 171 172 171 171 174 178 181 181 183 181 181 197 223 263 291 305 316 329 341 348 345 340 338 326 317 314 314 319 321 322 324 325 326 324 323 321 319 316 313 310 309 307 306 303 300 295 292 290 289 289 290 291 290 289 289 288 281 278 280 280 274 267 261 258 256 254 253 250 246 244 239 237
177 179 181 180 175 171 170 168 166 170 175 174 172 171 171 168 166 169 176 180 180 180 179 179 184 202 334 332 338 342 343 345 347 341 338 339 331 322 317 316 319 320 322 323 323 323 322 321 320 317 315 311 309 308 307 306 304 302 297 291 287 284 284 286 287 287 287 284 275 268 268 268 267 270 271 268 263 259 257 255 252 246 241 236 238
175 178 180 179 174 171 172 169 166 171 175 173 172 172 173 171 169 169 172 176 177 176 174 163 138 93 45 26 5 352 340 330 325 325 327 326 320 315 315 317 319 319 319 319 319 320 320 321 320 318 316 312 309 306 304 304 302 300 298 294 289 285 283 283 282 281 281 276 266 262 261 256 259 267 273 274 269 262 261 259 253 248 243 239 240
177 178 180 178 175 174 174 172 169 171 171 167 167 169 171 173 173 170 166 169 173 168 159 145 128 117 102 56 302 297 303 308 314 318 317 317 315 313 315 316 316 316 317 317 317 318 318 319 319 318 317 314 312 309 307 306 303 300 297 293 290 285 284 284 280 278 279 277 270 264 260 257 264 268 265 268 271 266 263 259 254 250 246 243 241
178 178 180 177 175 177 176 172 169 169 167 163 164 166 167 169 170 166 160 162 165 162 156 149 147 175 231 269 284 294 306 314 320 321 317 315 311 310 314 315 315 315 316 317 316 314 315 316 317 315 315 315 315 313 312 310 307 304 300 294 289 284 281 282 283 282 280 278 273 271 271 267 266 267 262 260 265 266 263 257 254 251 247 244 242
179 177 179 178 177 180 178 173 169 169 167 163 164 167 168 170 168 162 160 165 169 169 169 172 195 241 272 293 305 310 317 322 321 319 314 310 307 309 316 316 315 315 315 314 313 312 312 313 313 313 314 315 314 312 311 311 310 308 305 301 295 288 279 276 283 285 280 278 276 274 274 272 270 270 268 262 256 259 261 257 256 256 249 245 241
179 178 180 179 179 182 180 176 173 172 171 167 167 169 171 171 167 164 166 173 177 182 197 220 251 279 292 297 304 309 318 323 319 314 308 306 308 313 317 315 314 315 316 314 312 311 312 312 313 314 315 314 313 312 312 313 312 310 308 307 303 295 284 274 273 276 276 278 278 276 276 276 275 276 274 266 255 252 257 258 260 258 251 247 243
181 181 184 181 179 183 181 178 178 179 178 173 173 174 175 174 169 169 174 184 195 208 231 259 286 299 302 301 302 308 316 318 312 307 304 305 309 312 312 313 314 318 319 316 312 311 312 313 314 315 315 315 315 317 318 318 316 312 309 309 307 303 298 288 276 272 272 273 275 278 280 275 273 274 272 269 264 257 257 260 260 256 251 252 249
182 183 187 183 182 186 183 182 183 184 183 180 178 178 179 179 178 182 187 197 217 237 258 280 292 297 300 300 301 307 313 312 306 303 302 303 307 310 311 314 318 321 319 315 311 310 311 313 314 315 316 318 321 324 325 323 320 315 312 312 310 307 304 298 288 280 273 272 274 275 276 271 270 272 268 265 267 264 260 259 258 257 255 255 253
180 183 187 184 186 191 186 186 188 186 187 185 181 179 183 186 187 197 203 211 237 260 277 286 289 292 296 298 303 311 312 308 305 301 301 305 310 313 316 319 321 321 317 314 312 312 314 315 316 319 322 324 328 329 330 329 326 320 316 314 311 309 307 301 295 290 280 274 274 272 269 266 266 271 271 266 265 267 265 262 260 258 255 253 253
178 184 187 186 191 194 188 189 191 190 190 189 186 184 187 190 190 204 218 232 256 274 283 285 286 289 295 302 310 314 310 306 303 301 304 310 314 315 317 320 321 322 320 318 319 319 319 320 322 325 327 330 334 336 339 340 338 331 324 320 314 308 308 306 299 296 289 279 276 276 273 269 266 267 271 268 264 268 267 263 263 260 254 254 253
177 183 188 191 194 195 190 190 193 193 195 195 194 194 195 195 198 215 235 249 267 282 286 286 289 291 296 304 309 308 305 301 299 300 305 308 310 312 314 316 318 321 324 323 323 324 324 326 328 329 331 335 338 342 346 349 347 343 336 332 330 320 309 304 301 299 295 287 284 285 283 279 274 271 271 268 264 264 262 262 264 259 252 252 250
179 184 188 192 194 193 189 189 193 194 197 201 203 207 206 204 211 222 238 260 276 285 286 286 288 290 297 302 302 301 298 295 296 300 304 304 306 310 311 311 313 318 323 324 324 326 328 330 330 332 336 340 342 345 348 350 352 352 349 346 346 340 323 308 304 302 301 297 294 293 290 286 284 281 280 277 272 267 265 267 264 252 242 240 242
178 179 180 186 188 188 187 187 191 192 192 197 201 205 211 219 228 232 249 273 281 282 281 280 280 287 295 296 294 294 293 293 297 301 301 302 305 309 310 308 311 318 320 322 326 330 332 333 334 339 343 345 347 348 350 352 354 356 356 355 355 353 346 336 325 316 311 308 303 295 289 286 283 282 282 283 283 278 272 269 262 249 238 232 233
170 173 174 178 179 181 185 182 184 187 184 184 188 194 207 228 246 257 265 270 272 273 275 276 280 288 292 289 286 288 290 293 296 295 295 295 299 308 312 308 311 316 317 323 331 334 337 338 339 346 351 352 352 353 355 357 355 356 358 357 356 358 359 357 353 343 333 328 323 312 299 292 287 285 285 285 286 283 275 269 262 253 246 238 232
161 167 171 175 175 177 182 179 175 176 175 176 185 199 210 228 251 262 267 269 272 275 277 277 280 284 282 278 278 282 286 288 288 290 292 295 303 316 319 311 314 316 318 327 334 337 342 344 346 354 358 358 359 360 2 2 360 359 0 359 356 355 355 358 0 356 348 344 344 342 330 314 302 293 291 288 287 287 282 274 266 256 249 242 237
156 159 163 168 171 176 180 179 173 169 172 178 189 207 220 233 249 258 265 272 276 278 278 276 276 273 270 270 271 274 279 280 280 284 296 310 325 335 327 316 319 323 325 331 336 342 349 352 355 2 5 6 8 8 9 10 9 7 6 5 3 0 358 358 0 358 352 349 350 355 354 342 330 317 309 304 299 295 285 274 268 261 252 243 239
155 155 157 161 166 171 174 177 176 174 180 188 194 215 235 251 262 267 272 276 277 276 272 267 263 259 256 255 257 263 269 273 274 285 309 329 338 339 334 328 328 332 335 338 345 353 0 5 10 15 16 15 15 13 13 14 14 12 10 10 9 8 7 3 0 357 352 349 346 350 355 351 346 341 336 328 316 309 295 275 266 261 254 246 240
151 154 155 153 155 160 163 167 171 173 184 201 222 248 266 275 276 277 277 274 269 262 256 251 245 241 244 247 252 257 261 269 279 304 327 339 340 340 345 339 335 343 348 351 360 9 16 22 26 25 23 20 18 16 16 16 16 12 9 9 11 12 10 6 3 0 357 354 349 345 348 350 346 341 341 339 329 320 305 285 271 261 254 249 244
150 151 150 149 150 154 156 157 162 171 190 213 240 260 267 269 270 268 264 255 248 245 245 242 232 228 238 247 251 251 256 276 297 314 328 342 346 352 358 349 351 5 10 11 18 23 28 32 31 27 24 23 21 21 20 19 17 12 8 9 12 11 8 4 3 2 0 2 359 351 347 348 345 339 336 336 337 333 317 297 281 265 253 250 248
150 149 146 147 151 152 149 146 151 165 183 201 228 245 252 256 255 247 241 242 245 241 233 231 227 227 236 242 245 248 263 286 296 313 349 10 10 11 11 11 20 28 27 26 30 32 33 33 31 29 28 27 26 25 24 21 18 15 14 15 16 14 10 5 3 2 2 2 3 1 357 354 350 346 341 338 341 342 338 331 306 281 270 262 256
148 147 145 146 149 148 144 143 145 158 175 193 218 231 237 240 232 224 234 247 252 243 230 229 227 229 235 236 231 223 218 193 157 81 42 30 27 31 33 35 40 41 38 36 36 38 38 35 34 34 31 30 31 30 28 24 20 18 17 18 19 18 18 15 12 8 6 4 4 5 5 1 355 352 351 348 346 342 338 342 333 317 310 284 263
149 149 147 147 148 148 146 145 148 162 178 188 198 213 223 217 208 219 238 248 250 247 238 230 227 225 221 204 180 167 156 138 109 62 48 50 55 58 57 54 50 47 45 41 38 42 42 37 37 38 38 39 39 36 32 30 28 26 25 24 24 26 28 28 24 18 14 10 9 9 8 4 358 355 355 352 345 335 332 338 334 326 322 292 270
152 150 151 152 150 146 145 146 156 170 179 182 188 205 210 201 202 219 237 246 245 237 222 213 212 199 173 157 151 149 141 120 100 81 76 75 74 73 68 60 53 48 45 40 39 43 44 43 45 45 45 44 43 39 34 32 32 31 32 31 30 31 33 32 30 27 23 19 15 13 12 10 6 2 358 357 355 348 334 331 327 318 312 298 283
154 154 156 153 146 145 150 152 162 172 175 181 192 201 200 199 207 221 233 239 232 213 197 191 180 158 147 146 142 137 124 106 97 92 88 85 81 75 67 59 52 46 43 41 42 43 43 44 44 42 40 40 40 39 36 32 29 27 26 26 26 28 30 30 30 29 27 26 23 19 18 17 15 11 5 358 357 357 352 343 328 310 306 307 304
158 157 155 150 147 154 158 159 168 173 175 185 192 193 195 201 215 225 228 224 207 187 173 165 153 142 138 136 129 121 110 102 97 93 90 87 81 72 65 58 50 45 46 44 41 39 35 32 30 26 27 29 29 33 34 31 27 23 20 18 18 19 21 24 27 30 30 30 29 27 27 26 24 21 18 11 5 360 356 352 343 329 317 312 310
158 155 153 152 157 163 165 168 173 172 175 185 187 187 194 205 216 219 209 193 181 163 151 145 138 131 126 122 116 110 105 101 97 94 92 86 79 72 64 57 51 48 46 41 36 31 25 22 21 17 19 21 23 29 32 28 24 22 19 15 16 19 21 24 28 32 33 32 33 36 37 37 34 31 28 25 21 15 7 359 354 350 345 333 319
158 156 156 161 166 169 170 171 171 171 176 182 184 188 196 204 206 194 183 177 164 150 144 139 130 123 118 114 112 107 104 101 97 95 91 84 77 70 63 58 54 50 46 42 36 30 26 24 23 22 23 26 31 35 33 27 25 25 23 22 23 23 25 28 30 33 35 36 40 44 45 45 43 39 35 34 32 28 23 17 11 6 0 353 343
161 159 161 168 171 171 171 171 171 173 176 181 186 190 193 196 191 187 186 172 154 146 142 135 128 123 119 116 113 108 104 101 98 94 89 81 74 67 61 58 55 52 49 46 41 37 35 34 32 32 33 37 40 39 33 29 28 27 25 25 25 24 25 28 31 34 37 40 42 42 42 44 43 40 36 35 35 34 31 27 24 21 16 8 360
163 162 166 171 171 170 172 173 172 174 176 183 191 192 194 197 194 195 180 153 150 147 140 134 130 127 125 120 114 109 106 103 98 92 84 76 69 63 60 57 57 56 53 49 47 45 45 44 43 41 42 46 46 41 35 31 29 27 25 25 25 24 25 28 32 36 37 37 35 33 33 36 38 37 34 32 32 35 36 34 32 31 29 24 16
164 165 170 172 171 171 173 173 172 172 176 186 195 198 205 202 200 200 155 145 152 149 139 134 132 132 129 122 116 113 109 103 95 87 80 76 70 65 62 59 59 61 58 55 55 53 52 52 50 48 49 52 49 41 34 29 27 26 25 25 28 29 30 32 35 37 34 30 26 24 26 29 30 31 31 29 27 29 32 34 35 35 35 34 31
166 169 171 170 169 169 171 171 170 175 183 187 191 206 214 202 202 195 148 150 156 147 139 136 135 135 130 122 117 113 106 99 93 87 83 79 74 70 68 68 68 68 65 62 60 57 55 52 50 49 49 50 48 42 34 28 26 25 24 25 29 32 35 36 36 35 33 31 27 25 26 27 26 26 25 23 21 21 22 25 29 33 34 35 37
168 169 170 169 169 167 168 169 171 180 188 185 185 207 212 200 205 188 151 155 153 141 140 140 137 134 128 120 116 111 104 99 94 90 86 82 79 79 79 78 77 72 67 63 60 56 54 52 51 48 47 49 49 43 36 31 28 26 26 26 28 31 33 35 35 33 32 33 32 30 27 26 25 24 20 15 15 16 17 21 27 29 29 31 36
172 172 173 172 171 169 170 173 177 185 189 185 187 206 206 203 208 177 153 154 149 139 142 142 137 131 124 120 117 112 107 102 98 94 90 88 88 88 86 81 75 71 66 63 61 59 58 57 56 53 53 55 54 48 42 38 34 30 29 28 29 32 34 36 37 35 34 34 33 31 29 26 24 24 21 17 15 14 16 25 31 32 32 35 38
175 177 176 173 172 174 174 175 182 187 187 185 188 203 210 212 198 165 154 152 145 137 136 134 131 125 122 122 121 117 111 105 102 100 96 96 93 90 86 81 76 73 71 68 67 68 67 66 66 64 63 63 61 56 52 49 45 42 40 38 37 38 41 43 43 42 41 40 38 35 32 29 26 24 22 21 19 16 17 24 28 30 34 38 39
176 176 173 172 175 177 173 174 183 183 179 179 191 206 216 204 174 158 151 143 134 128 125 126 125 122 121 122 121 118 113 110 109 105 100 98 95 91 89 86 81 79 78 77 76 76 74 71 69 67 65 64 62 59 54 52 50 48 47 47 46 46 47 48 48 47 46 44 43 41 38 35 32 28 24 22 22 21 23 25 25 24 28 33 32
176 176 174 174 176 174 170 176 182 175 167 174 192 207 207 181 158 148 140 131 128 125 123 124 122 120 120 121 120 119 116 113 111 105 100 98 96 93 92 89 86 84 83 83 80 77 75 71 68 65 63 60 58 56 51 48 48 46 46 47 47 47 47 47 47 46 46 45 44 43 41 39 36 33 29 26 24 23 25 27 27 25 27 29 24
173 176 175 173 170 167 168 176 177 169 165 173 185 195 184 163 148 139 133 130 129 127 125 124 121 121 121 120 120 120 117 114 110 106 103 100 96 95 94 92 89 88 87 85 80 76 74 71 66 63 60 57 54 52 49 46 45 44 43 44 45 46 45 43 44 43 42 42 41 41 42 40 38 36 34 33 31 29 28 28 26 27 29 27 18
172 173 169 164 162 164 168 173 174 172 172 176 180 175 163 151 143 139 136 133 131 129 128 127 125 125 124 123 123 122 118 113 109 106 105 102 98 97 95 92 91 89 87 84 79 75 73 70 66 61 58 56 54 52 50 48 46 45 45 44 46 47 45 43 43 42 40 40 39 38 39 38 35 34 34 34 35 35 34 34 33 31 30 23 14
166 165 162 160 162 167 171 175 175 174 175 176 173 162 152 146 145 144 139 136 134 133 132 132 131 130 129 127 125 122 118 113 110 109 107 103 102 100 96 93 92 89 86 82 79 76 73 71 68 64 61 59 57 55 53 52 50 49 48 48 48 48 45 42 43 42 40 39 37 37 37 34 30 31 31 32 34 36 38 40 40 38 35 29 22
162 161 162 165 167 168 171 173 170 168 170 171 167 158 150 148 149 146 141 139 139 138 138 138 136 136 133 131 128 123 119 116 114 112 107 103 104 103 98 95 92 88 86 83 80 77 75 73 70 67 64 61 58 56 54 52 51 49 48 47 46 45 42 40 41 42 41 39 37 37 36 32 28 28 29 31 33 35 38 40 40 39 39 37 35
162 162 165 170 168 164 164 164 159 157 162 167 167 161 153 152 152 149 146 145 143 142 143 141 140 139 136 133 130 126 123 121 117 114 109 106 106 105 101 99 95 90 87 85 82 79 76 74 72 68 65 62 59 56 54 52 50 48 47 47 45 43 41 39 40 42 41 41 40 39 37 35 32 32 34 36 37 37 38 38 38 39 39 39 39
164 166 170 172 168 165 164 159 153 154 159 164 169 166 157 155 156 152 149 148 146 144 145 142 141 140 138 136 133 130 128 125 120 117 112 109 109 108 106 103 99 93 88 85 83 80 76 74 72 68 64 61 58 57 54 52 50 48 48 48 46 44 41 39 39 41 42 42 43 41 39 38 38 38 40 42 41 40 40 39 38 37 38 39 40
167 169 170 169 165 164 161 153 149 154 161 166 172 174 166 159 155 150 149 149 147 146 145 143 142 141 140 140 138 135 133 129 124 123 119 115 114 113 109 105 101 95 89 85 83 80 76 74 71 68 66 63 61 59 56 52 50 48 48 48 47 46 43 41 41 42 42 43 43 41 40 40 41 42 44 44 44 43 42 42 40 39 38 39 39
167 169 169 167 164 161 155 149 147 156 165 168 169 170 164 156 150 148 149 149 148 147 146 142 142 142 142 143 142 139 137 133 130 129 125 120 118 115 110 104 98 92 89 87 84 81 78 75 71 69 69 68 66 63 60 55 50 46 46 47 47 46 44 42 42 43 43 43 44 44 44 45 45 46 47 46 45 43 43 43 42 41 40 39 38
167 169 169 169 166 161 155 151 151 158 165 167 165 164 160 153 148 148 150 149 148 148 144 141 142 142 142 144 145 143 141 138 135 133 128 123 120 116 111 104 96 90 88 87 86 81 76 73 71 70 69 69 68 65 61 57 51 46 45 47 47 47 45 42 43 43 44 44 45 45 46 45 44 45 45 44 45 44 43 42 42 40 39 38 38
169 169 170 170 167 161 156 153 154 159 164 165 163 160 155 150 147 149 150 150 149 147 144 142 142 142 142 145 146 145 144 142 139 135 130 124 120 114 109 105 100 95 91 88 85 80 74 70 70 68 66 65 65 63 60 56 52 48 48 49 49 48 47 45 45 46 46 45 45 44 43 42 42 42 43 44 45 44 42 41 40 39 38 37 37
169 169 171 170 166 162 160 158 157 159 163 164 161 156 151 149 149 151 153 153 151 148 145 143 142 141 143 145 145 145 145 143 141 138 134 128 123 116 111 109 105 101 95 89 85 81 74 69 67 66 66 65 65 64 61 57 54 52 52 53 53 52 51 49 49 48 48 48 46 45 44 43 43 43 44 44 43 43 41 39 37 37 37 38 38
171 170 169 167 165 164 165 162 159 159 163 164 160 154 151 151 151 153 157 159 155 150 146 143 142 142 142 143 144 145 145 144 142 141 138 134 129 123 117 112 106 102 97 91 85 81 76 71 67 67 68 69 68 66 63 59 58 57 57 57 57 57 55 53 50 49 50 50 48 46 46 45 44 44 44 43 42 42 41 39 37 37 37 37 37
Height
1507 1509 1511 1512 1514 1515 1516 1518 1520 1521 1523 1525 1526 1528 1529 1531 1532 1534 1535 1536 1537 1538 1539 1540 1540 1541 1542 1542 1543 1543 1544 1544 1544 1544 1544 1544 1544 1544 1544 1544 1545 1544 1544 1543 1542 1541 1541 1541 1541 1540 1540 1539 1539 1538 1538 1537 1537 1536 1536 1535 1534 1532 1531 1531 1531 1531 1530 1529 1528 1528 1528 1529 1529 1528 1528 1528 1529 1530 1530 1531 1531 1532 1533 1535 1536
1507 1509 1511 1513 1514 1515 1517 1518 1520 1521 1523 1524 1526 1528 1529 1531 1532 1533 1535 1536 1537 1538 1538 1539 1540 1540 1541 1542 1542 1543 1543 1543 1543 1543 1543 1543 1543 1543 1543 1543 1543 1543 1542 1541 1541 1540 1540 1540 1539 1539 1538 1537 1537 1536 1536 1535 1535 1535 1534 1533 1532 1531 1529 1528 1529 1529 1528 1527 1526 1526 1525 1525 1525 1525 1525 1526 1526 1527 1528 1528 1529 1530 1531 1532 1533
1507 1510 1512 1513 1515 1516 1517 1518 1520 1521 1523 1525 1526 1528 1529 1530 1532 1533 1535 1536 1537 1537 1538 1538 1539 1540 1540 1541 1541 1542 1542 1542 1542 1542 1542 1542 1542 1542 1542 1542 1542 1541 1541 1540 1540 1539 1539 1538 1538 1537 1536 1536 1535 1534 1533 1533 1533 1532 1531 1531 1530 1529 1527 1526 1526 1526 1526 1526 1525 1524 1523 1523 1522 1521 1522 1523 1524 1525 1525 1526 1527 1527 1528 1529 1530
1507 1510 1512 1514 1516 1517 1518 1519 1520 1522 1523 1525 1527 1528 1529 1530 1532 1533 1534 1536 1536 1536 1537 1538 1539 1539 1539 1540 1540 1541 1541 1541 1541 1541 1541 1541 1541 1541 1541 1541 1541 1540 1540 1539 1538 1538 1537 1537 1536 1536 1535 1534 1533 1532 1531 1530 1530 1529 1529 1528 1527 1526 1525 1524 1524 1523 1523 1524 1524 1522 1522 1521 1519 1518 1520 1521 1522 1523 1522 1523 1524 1525 1526 1527 1527
1507 1510 1513 1515 1516 1518 1519 1520 1521 1522 1524 1525 1527 1528 1529 1530 1531 1533 1534 1535 1536 1536 1537 1537 1538 1538 1539 1539 1540 1540 1540 1541 1541 1541 1541 1541 1541 1541 1541 1541 1540 1540 1539 1538 1537 1537 1536 1536 1535 1534 1534 1533 1532 1530 1529 1529 1528 1527 1526 1525 1524 1524 1523 1522 1521 1521 1520 1521 1521 1520 1520 1519 1517 1517 1518 1518 1519 1520 1519 1520 1520 1521 1523 1524 1524
1508 1511 1513 1515 1517 1518 1519 1521 1522 1523 1524 1526 1527 1528 1529 1530 1531 1533 1533 1534 1535 1536 1536 1536 1537 1538 1539 1539 1540 1540 1541 1541 1541 1541 1541 1541 1541 1541 1540 1540 1539 1539 1538 1537 1536 1536 1535 1534 1534 1533 1532 1531 1530 1529 1528 1527 1526 1525 1524 1523 1522 1521 1520 1519 1518 1518 1517 1517 1517 1517 1517 1516 1516 1516 1516 1516 1516 1516 1517 1517 1517 1518 1520 1521 1521
1509 1511 1514 1516 1518 1519 1520 1522 1523 1524 1525 1526 1527 1528 1529 1530 1531 1532 1533 1534 1534 1535 1536 1536 1537 1538 1539 1540 1540 1540 1541 1540 1540 1540 1539 1539 1540 1540 1540 1539 1538 1537 1537 1536 1535 1534 1534 1533 1532 1531 1530 1529 1528 1526 1525 1524 1523 1522 1521 1520 1518 1518 1517 1516 1515 1515 1514 1513 1512 1513 1513 1513 1513 1514 1514 1514 1514 1513 1514 1514 1515 1516 1517 1517 1518
1509 1511 1514 1516 1518 1519 1520 1522 1523 1524 1525 1526 1527 1528 1529 1530 1531 1532 1533 1534 1535 1535 1535 1536 1537 1538 1539 1539 1540 1539 1539 1539 1539 1539 1539 1538 1539 1539 1539 1538 1537 1536 1535 1535 1534 1533 1532 1532 1531 1530 1528 1527 1526 1524 1523 1521 1520 1519 1517 1516 1515 1514 1514 1513 1512 1512 1511 1509 1509 1509 1509 1510 1510 1510 1510 1512 1512 1511 1511 1512 1513 1514 1514 1514 1515
1509 1512 1514 1516 1518 1519 1520 1521 1522 1524 1524 1525 1526 1528 1529 1530 1531 1532 1533 1534 1535 1535 1535 1536 1536 1537 1538 1538 1538 1538 1538 1538 1538 1538 1538 1538 1538 1538 1537 1537 1536 1535 1534 1533 1532 1532 1531 1530 1529 1528 1527 1526 1524 1522 1521 1519 1517 1515 1514 1512 1511 1510 1510 1509 1509 1508 1508 1507 1505 1505 1505 1506 1506 1506 1507 1509 1509 1509 1509 1509 1510 1511 1511 1511 1512
1510 1512 1513 1516 1517 1518 1520 1521 1522 1523 1524 1525 1526 1527 1528 1529 1531 1532 1534 1535 1535 1535 1535 1535 1536 1537 1537 1537 1537 1537 1537 1538 1538 1538 1537 1537 1536 1536 1536 1535 1535 1534 1533 1532 1532 1531 1530 1529 1528 1527 1525 1524 1522 1520 1518 1516 1514 1512 1510 1509 1508 1507 1506 1506 1505 1504 1504 1503 1502 1502 1502 1502 1503 1503 1504 1504 1505 1506 1505 1505 1506 1507 1507 1507 1508
1509 1511 1513 1516 1517 1518 1519 1520 1521 1523 1524 1525 1526 1527 1528 1529 1531 1532 1534 1534 1534 1535 1534 1535 1536 1536 1536 1536 1536 1537 1537 1537 1537 1537 1536 1536 1535 1535 1535 1534 1534 1533 1532 1531 1531 1530 1529 1528 1527 1525 1524 1522 1520 1518 1516 1513 1511 1509 1508 1507 1506 1505 1504 1503 1502 1501 1501 1500 1500 1500 1500 1500 1499 1499 1499 1501 1502 1502 1502 1501 1502 1503 1504 1504 1505
1508 1510 1513 1515 1516 1517 1519 1519 1520 1522 1523 1525 1526 1527 1528 1529 1531 1532 1533 1533 1534 1534 1534 1535 1536 1536 1536 1536 1536 1536 1536 1536 1536 1535 1535 1534 1534 1534 1533 1533 1532 1532 1531 1531 1530 1529 1528 1527 1525 1524 1522 1521 1519 1516 1514 1511 1509 1507 1506 1505 1504 1503 1502 1500 1499 1498 1498 1498 1497 1497 1497 1497 1497 1496 1496 1498 1498 1498 1498 1498 1498 1500 1500 1501 1502
1507 1510 1512 1514 1515 1516 1518 1519 1520 1521 1523 1525 1527 1528 1528 1529 1530 1531 1532 1532 1534 1534 1534 1535 1536 1536 1536 1536 1536 1536 1535 1535 1535 1534 1534 1533 1533 1532 1532 1531 1531 1531 1531 1530 1529 1528 1527 1525 1524 1523 1521 1519 1517 1515 1512 1510 1507 1506 1504 1503 1502 1501 1500 1498 1498 1497 1496 1496 1495 1494 1494 1494 1493 1493 1494 1495 1495 1495 1495 1494 1494 1496 1496 1497 1499
1507 1509 1511 1513 1514 1516 1518 1519 1521 1522 1523 1526 1527 1528 1529 1529 1530 1530 1531 1533 1534 1534 1534 1535 1535 1535 1536 1536 1536 1535 1535 1535 1534 1534 1533 1533 1532 1532 1531 1531 1531 1530 1530 1529 1528 1527 1526 1524 1523 1521 1520 1518 1516 1514 1512 1509 1507 1505 1503 1502 1500 1499 1498 1497 1496 1496 1495 1494 1493 1492 1491 1490 1490 1491 1491 1491 1491 1491 1491 1490 1492 1492 1492 1494 1495
1507 1509 1511 1513 1515 1516 1518 1520 1521 1522 1524 1526 1527 1528 1529 1530 1530 1531 1532 1533 1533 1534 1534 1535 1535 1535 1535 1535 1535 1535 1534 1534 1533 1533 1533 1532 1532 1532 1531 1531 1531 1530 1530 1529 1528 1526 1525 1524 1522 1521 1519 1517 1515 1513 1511 1509 1507 1504 1502 1501 1499 1498 1496 1495 1494 1494 1492 1491 1490 1489 1489 1488 1487 1487 1487 1487 1487 1488 1487 1488 1489 1489 1489 1490 1492
1507 1509 1511 1513 1515 1517 1518 1519 1521 1522 1524 1526 1527 1528 1530 1530 1531 1532 1532 1533 1533 1533 1534 1534 1535 1535 1535 1534 1534 1534 1533 1533 1533 1533 1532 1532 1532 1531 1531 1531 1530 1530 1529 1528 1527 1526 1525 1523 1521 1520 1518 1517 1515 1513 1511 1509 1506 1504 1502 1500 1498 1497 1495 1494 1493 1492 1490 1489 1488 1487 1486 1485 1485 1484 1484 1484 1484 1484 1484 1484 1485 1486 1486 1487 1489
1506 1509 1511 1514 1515 1517 1519 1520 1522 1523 1524 1526 1527 1529 1530 1531 1532 1532 1532 1532 1533 1533 1534 1534 1534 1534 1534 1533 1533 1533 1533 1533 1532 1532 1532 1532 1531 1531 1531 1530 1530 1529 1529 1528 1527 1526 1524 1522 1521 1519 1518 1516 1514 1512 1510 1508 1506 1504 1502 1500 1498 1496 1495 1494 1492 1491 1489 1488 1486 1485 1483 1482 1482 1481 1482 1482 1482 1482 1481 1481 1482 1483 1484 1485 1486
1505 1508 1511 1514 1516 1518 1520 1521 1523 1524 1525 1527 1528 1529 1530 1531 1532 1532 1532 1532 1533 1533 1533 1533 1533 1533 1533 1532 1533 1533 1532 1532 1532 1532 1533 1532 1531 1531 1531 1530 1529 1529 1528 1527 1526 1525 1524 1522 1520 1519 1517 1515 1514 1512 1510 1508 1506 1504 1502 1500 1498 1496 1495 1493 1492 1491 1489 1488 1486 1484 1482 1481 1480 1480 1479 1480 1479 1478 1478 1478 1479 1480 1481 1482 1483
1505 1507 1509 1511 1514 1518 1519 1520 1523 1525 1527 1528 1528 1529 1530 1531 1532 1532 1532 1532 1533 1533 1532 1532 1532 1532 1532 1532 1532 1532 1532 1532 1532 1532 1532 1532 1531 1531 1530 1529 1529 1528 1527 1527 1526 1525 1523 1522 1520 1518 1517 1515 1513 1512 1510 1508 1506 1504 1502 1500 1498 1496 1495 1493 1492 1490 1489 1488 1486 1484 1482 1481 1479 1478 1477 1477 1476 1476 1476 1475 1476 1476 1477 1478 1480
1505 1507 1509 1511 1514 1518 1519 1520 1523 1525 1527 1528 1528 1529 1530 1531 1532 1532 1533 1532 1532 1533 1532 1532 1532 1532 1532 1532 1532 1532 1532 1532 1532 1532 1532 1531 1531 1530 1530 1529 1528 1528 1527 1527 1526 1524 1523 1521 1520 1518 1517 1515 1513 1511 1510 1508 1506 1504 1502 1500 1498 1496 1494 1493 1492 1491 1489 1488 1486 1484 1482 1481 1479 1478 1477 1475 1474 1474 1473 1473 1473 1473 1474 1475 1477
1504 1507 1510 1511 1515 1519 1520 1522 1524 1526 1527 1528 1529 1530 1531 1532 1533 1532 1533 1532 1532 1532 1532 1532 1532 1532 1532 1532 1532 1533 1532 1532 1532 1532 1532 1531 1531 1530 1529 1529 1528 1528 1528 1527 1526 1524 1523 1521 1520 1518 1517 1515 1513 1512 1510 1508 1506 1505 1503 1500 1498 1497 1495 1493 1492 1491 1490 1487 1485 1484 1482 1480 1479 1478 1476 1475 1473 1472 1472 1471 1471 1471 1472 1473 1474
1505 1508 1509 1510 1514 1519 1520 1521 1524 1526 1527 1528 1529 1530 1531 1532 1533 1533 1533 1533 1532 1532 1532 1532 1532 1532 1532 1532 1532 1533 1532 1533 1533 1532 1532 1531 1531 1530 1529 1529 1528 1528 1527 1527 1526 1524 1523 1522 1520 1519 1517 1515 1513 1512 1510 1509 1507 1505 1503 1501 1499 1497 1495 1494 1492 1491 1490 1488 1486 1484 1482 1480 1479 1478 1476 1475 1473 1472 1471 1470 1469 1470 1470 1471 1472
1505 1508 1509 1510 1515 1519 1520 1521 1523 1525 1526 1528 1530 1531 1532 1533 1533 1533 1533 1533 1533 1533 1532 1532 1532 1532 1532 1532 1532 1533 1533 1533 1533 1533 1532 1531 1530 1530 1530 1529 1529 1528 1528 1527 1526 1525 1523 1522 1521 1519 1517 1516 1514 1513 1511 1509 1507 1505 1503 1501 1500 1498 1496 1495 1493 1491 1490 1488 1486 1484 1482 1481 1480 1478 1476 1474 1473 1472 1471 1470 1469 1469 1469 1470 1471
1505 1507 1509 1512 1515 1518 1520 1521 1523 1524 1526 1529 1529 1531 1532 1533 1534 1534 1534 1534 1533 1533 1532 1532 1532 1532 1532 1532 1532 1533 1533 1533 1533 1532 1532 1531 1531 1530 1530 1530 1529 1529 1528 1527 1526 1525 1524 1523 1521 1519 1518 1516 1515 1513 1511 1509 1507 1506 1504 1502 1500 1498 1497 1495 1494 1492 1490 1489 1487 1485 1483 1482 1480 1478 1476 1475 1473 1472 1471 1470 1469 1468 1469 1469 1470
1504 1507 1510 1513 1515 1518 1519 1520 1522 1524 1527 1528 1529 1531 1532 1533 1534 1534 1534 1534 1533 1533 1532 1532 1532 1531 1532 1532 1532 1533 1533 1533 1533 1532 1532 1531 1531 1531 1531 1531 1531 1530 1529 1528 1527 1526 1524 1523 1521 1519 1518 1517 1515 1514 1512 1510 1508 1506 1505 1503 1501 1499 1498 1496 1495 1493 1491 1489 1487 1486 1484 1482 1480 1479 1477 1475 1474 1473 1471 1470 1469 1468 1469 1469 1469
1505 1507 1511 1513 1515 1517 1518 1520 1523 1525 1527 1528 1530 1531 1533 1533 1534 1534 1534 1534 1533 1532 1532 1531 1531 1531 1532 1532 1533 1533 1533 1533 1533 1532 1532 1532 1532 1532 1532 1532 1531 1531 1530 1529 1527 1526 1525 1523 1522 1520 1519 1517 1516 1514 1513 1511 1509 1508 1506 1504 1503 1501 1499 1497 1496 1494 1492 1490 1488 1487 1485 1483 1481 1479 1477 1476 1475 1473 1472 1471 1470 1469 1469 1469 1469
1506 1509 1512 1513 1514 1516 1518 1520 1524 1526 1527 1529 1530 1531 1532 1533 1533 1534 1534 1533 1532 1532 1532 1532 1532 1532 1532 1533 1533 1533 1533 1533 1533 1532 1533 1533 1533 1533 1533 1532 1532 1531 1530 1529 1528 1526 1525 1524 1523 1521 1520 1518 1517 1515 1514 1512 1510 1509 1507 1506 1504 1502 1501 1499 1497 1495 1493 1491 1490 1488 1486 1484 1482 1480 1478 1477 1476 1474 1473 1472 1471 1470 1470 1469 1469
1506 1508 1510 1511 1513 1516 1519 1521 1523 1525 1527 1529 1530 1531 1532 1533 1533 1533 1533 1533 1532 1532 1532 1532 1532 1532 1533 1533 1533 1533 1533 1533 1533 1533 1533 1534 1534 1534 1533 1533 1532 1531 1531 1529 1528 1527 1526 1524 1523 1522 1521 1519 1518 1516 1514 1513 1512 1510 1509 1507 1506 1504 1502 1500 1498 1496 1494 1493 1491 1489 1487 1486 1484 1482 1480 1478 1476 1475 1474 1473 1471 1470 1470 1469 1469
1505 1506 1509 1512 1514 1517 1519 1520 1522 1524 1526 1528 1530 1531 1532 1532 1532 1533 1533 1533 1532 1532 1532 1532 1533 1533 1533 1533 1533 1533 1533 1533 1534 1534 1534 1535 1534 1534 1534 1533 1533 1532 1531 1530 1529 1528 1526 1525 1524 1523 1521 1520 1519 1517 1515 1514 1513 1511 1510 1509 1507 1505 1503 1502 1500 1498 1496 1494 1493 1491 1489 1488 1486 1484 1482 1480 1478 1476 1474 1473 1472 1471 1470 1469 1469
1504 1507 1510 1512 1514 1516 1518 1519 1522 1524 1526 1528 1530 1530 1531 1532 1532 1533 1533 1533 1533 1532 1533 1533 1533 1533 1533 1533 1534 1534 1534 1534 1534 1535 1535 1535 1535 1535 1534 1534 1533 1532 1532 1531 1530 1529 1527 1526 1525 1523 1522 1521 1519 1518 1517 1516 1515 1513 1512 1510 1508 1507 1505 1503 1501 1499 1497 1496 1494 1493 1491 1490 1488 1486 1484 1481 1480 1478 1476 1474 1473 1471 1470 1469 1469
1504 1507 1509 1511 1513 1516 1517 1519 1522 1525 1527 1529 1530 1531 1531 1531 1532 1533 1533 1533 1532 1533 1533 1533 1533 1533 1534 1534 1534 1534 1534 1535 1535 1536 1536 1536 1536 1535 1535 1534 1534 1533 1533 1532 1531 1530 1528 1527 1526 1525 1523 1522 1520 1520 1519 1518 1516 1515 1513 1512 1510 1508 1506 1504 1503 1501 1500 1498 1496 1495 1493 1491 1488 1487 1485 1483 1481 1480 1478 1477 1475 1473 1471 1470 1469
1502 1505 1508 1510 1513 1515 1517 1520 1523 1525 1528 1529 1530 1531 1531 1531 1532 1532 1532 1532 1533 1533 1533 1533 1533 1534 1534 1535 1535 1535 1535 1536 1536 1536 1536 1536 1536 1536 1536 1535 1535 1534 1534 1533 1532 1531 1530 1529 1527 1526 1524 1523 1522 1522 1521 1520 1518 1517 1515 1513 1511 1510 1508 1506 1504 1503 1502 1500 1498 1497 1495 1492 1490 1489 1487 1486 1484 1482 1481 1479 1477 1475 1473 1472 1471
1501 1504 1506 1509 1512 1514 1517 1520 1523 1525 1527 1529 1530 1531 1531 1531 1532 1532 1532 1532 1533 1534 1533 1533 1534 1534 1535 1535 1535 1536 1536 1536 1537 1537 1537 1537 1537 1537 1537 1536 1536 1535 1535 1534 1533 1532 1531 1530 1528 1527 1526 1525 1524 1523 1523 1521 1520 1519 1517 1515 1513 1511 1509 1507 1506 1504 1503 1501 1500 1498 1496 1494 1492 1491 1489 1488 1487 1485 1483 1482 1480 1478 1476 1475 1473
1500 1503 1505 1509 1511 1514 1517 1520 1523 1525 1526 1527 1530 1531 1532 1532 1532 1532 1532 1533 1533 1533 1533 1533 1534 1535 1535 1536 1536 1537 1537 1537 1537 1538 1538 1538 1538 1538 1538 1537 1537 1537 1536 1535 1534 1533 1532 1531 1530 1529 1527 1526 1525 1525 1524 1523 1522 1520 1518 1517 1515 1513 1511 1509 1508 1506 1505 1503 1501 1499 1497 1496 1494 1492 1490 1489 1488 1487 1485 1484 1482 1480 1478 1477 1476
1500 1502 1506 1509 1511 1513 1517 1520 1523 1525 1526 1527 1528 1530 1532 1533 1532 1532 1532 1533 1533 1533 1533 1534 1534 1535 1536 1537 1537 1538 1538 1538 1538 1539 1539 1539 1539 1539 1539 1539 1538 1538 1537 1536 1535 1534 1533 1532 1531 1530 1529 1528 1527 1527 1526 1525 1523 1522 1520 1518 1516 1515 1513 1511 1509 1508 1506 1505 1503 1502 1500 1498 1496 1494 1493 1491 1490 1489 1488 1486 1484 1482 1480 1479 1477
1499 1502 1504 1508 1511 1513 1516 1520 1522 1524 1526 1527 1528 1529 1532 1533 1533 1532 1532 1532 1533 1533 1533 1534 1535 1536 1537 1538 1538 1539 1539 1539 1539 1540 1540 1540 1540 1540 1540 1540 1540 1539 1538 1537 1536 1535 1535 1534 1533 1532 1531 1530 1529 1529 1528 1527 1525 1524 1522 1520 1518 1516 1514 1513 1511 1509 1508 1507 1505 1504 1502 1501 1499 1497 1496 1494 1492 1491 1489 1488 1486 1484 1483 1481 1480
1499 1502 1504 1507 1510 1513 1516 1519 1521 1524 1526 1527 1528 1529 1532 1533 1533 1532 1532 1532 1532 1533 1533 1534 1535 1536 1537 1539 1540 1540 1540 1540 1540 1540 1541 1541 1541 1541 1541 1541 1541 1540 1540 1539 1538 1537 1536 1535 1535 1534 1533 1532 1531 1531 1530 1528 1527 1525 1523 1521 1520 1518 1516 1514 1513 1511 1510 1508 1507 1505 1504 1503 1501 1499 1498 1497 1495 1493 1491 1490 1488 1487 1485 1484 1483
1499 1502 1505 1508 1510 1513 1517 1519 1521 1523 1525 1527 1528 1529 1531 1533 1533 1532 1532 1532 1532 1533 1534 1535 1536 1537 1538 1540 1541 1541 1541 1541 1541 1542 1542 1542 1542 1542 1542 1543 1543 1542 1541 1540 1539 1539 1538 1537 1536 1535 1534 1534 1533 1532 1532 1530 1529 1527 1525 1523 1522 1520 1518 1516 1515 1514 1512 1511 1509 1508 1506 1504 1503 1501 1500 1498 1496 1495 1493 1491 1490 1488 1487 1485 1485
1500 1502 1504 1508 1511 1514 1517 1520 1521 1523 1525 1526 1527 1529 1531 1533 1533 1532 1532 1532 1533 1534 1535 1536 1537 1538 1539 1541 1541 1542 1542 1542 1542 1543 1543 1543 1543 1543 1544 1544 1544 1543 1542 1542 1541 1540 1539 1538 1538 1537 1536 1535 1534 1534 1533 1532 1530 1529 1527 1526 1524 1522 1520 1519 1518 1516 1515 1513 1512 1510 1509 1507 1506 1504 1502 1500 1498 1496 1494 1493 1492 1490 1488 1487 1487
1500 1503 1504 1508 1512 1515 1518 1521 1522 1524 1525 1525 1526 1528 1531 1532 1532 1532 1532 1532 1533 1535 1536 1537 1538 1539 1540 1542 1542 1543 1543 1543 1544 1544 1544 1545 1545 1545 1545 1546 1545 1545 1544 1543 1543 1542 1541 1540 1539 1539 1538 1537 1536 1535 1534 1533 1532 1530 1529 1527 1525 1523 1522 1521 1520 1518 1517 1515 1514 1513 1511 1510 1509 1507 1505 1503 1500 1498 1497 1495 1494 1492 1491 1491 1491
1500 1503 1506 1509 1512 1515 1518 1521 1524 1525 1526 1525 1526 1528 1530 1532 1532 1532 1533 1533 1534 1535 1537 1538 1539 1540 1541 1542 1543 1544 1544 1545 1545 1546 1546 1546 1546 1546 1547 1547 1547 1546 1546 1545 1544 1543 1542 1542 1541 1541 1540 1539 1538 1537 1536 1535 1533 1532 1530 1529 1527 1525 1525 1524 1522 1520 1519 1517 1516 1515 1514 1513 1512 1510 1508 1505 1503 1502 1500 1498 1496 1495 1495 1495 1494
1499 1503 1506 1509 1512 1516 1519 1523 1525 1525 1526 1526 1526 1528 1529 1531 1532 1533 1533 1534 1535 1537 1538 1539 1540 1542 1543 1543 1544 1545 1545 1546 1546 1547 1547 1547 1547 1548 1548 1548 1548 1547 1547 1546 1545 1545 1544 1543 1543 1542 1541 1540 1540 1539 1538 1536 1535 1534 1532 1531 1529 1528 1527 1526 1524 1522 1521 1520 1519 1518 1517 1516 1515 1512 1510 1508 1507 1505 1503 1501 1500 1499 1498 1497 1495
1500 1503 1506 1509 1512 1516 1519 1522 1524 1525 1526 1527 1527 1528 1529 1531 1533 1534 1534 1535 1536 1537 1539 1540 1541 1542 1543 1544 1545 1546 1546 1547 1548 1548 1549 1548 1549 1550 1550 1550 1549 1549 1548 1547 1547 1546 1546 1545 1544 1544 1543 1542 1542 1541 1540 1538 1537 1536 1534 1533 1532 1530 1529 1528 1526 1524 1523 1522 1522 1521 1520 1519 1517 1515 1513 1511 1509 1507 1505 1504 1503 1502 1500 1499 1497
1501 1504 1507 1510 1513 1516 1519 1522 1523 1525 1527 1527 1528 1529 1530 1532 1533 1535 1535 1536 1537 1538 1540 1541 1542 1543 1544 1545 1546 1547 1548 1548 1549 1549 1550 1550 1550 1551 1551 1551 1550 1550 1549 1548 1548 1548 1547 1546 1546 1545 1544 1544 1543 1542 1542 1540 1539 1538 1537 1535 1534 1533 1531 1530 1528 1527 1526 1525 1524 1523 1522 1521 1519 1517 1515 1513 1511 1509 1508 1507 1506 1504 1502 1500 1498
1501 1504 1507 1510 1513 1516 1519 1521 1523 1525 1527 1528 1529 1530 1531 1532 1534 1535 1536 1537 1538 1539 1540 1542 1543 1544 1545 1546 1547 1548 1549 1549 1550 1550 1551 1551 1552 1552 1552 1552 1552 1551 1550 1550 1549 1549 1548 1548 1547 1547 1546 1546 1545 1545 1544 1543 1542 1541 1539 1538 1537 1535 1534 1533 1531 1529 1528 1527 1527 1525 1524 1522 1521 1519 1517 1515 1513 1512 1510 1509 1507 1506 1504 1502 1500
1500 1503 1506 1510 1513 1515 1518 1520 1523 1526 1527 1529 1530 1531 1532 1533 1534 1535 1536 1537 1538 1540 1541 1543 1544 1545 1546 1547 1548 1548 1549 1550 1551 1552 1552 1553 1553 1553 1553 1553 1553 1552 1552 1551 1551 1550 1550 1549 1549 1548 1548 1548 1547 1547 1546 1545 1544 1543 1542 1541 1539 1538 1536 1535 1534 1532 1531 1530 1529 1528 1526 1524 1522 1520 1519 1517 1515 1514 1513 1511 1509 1508 1506 1504 1503
1499 1502 1506 1510 1513 1515 1517 1519 1522 1525 1527 1528 1530 1531 1532 1533 1534 1535 1537 1538 1540 1541 1542 1543 1544 1545 1546 1547 1548 1549 1550 1551 1552 1553 1553 1554 1554 1555 1554 1554 1554 1554 1553 1553 1552 1552 1552 1551 1551 1551 1551 1550 1549 1548 1548 1547 1546 1545 1544 1543 1541 1540 1539 1537 1536 1535 1533 1532 1531 1529 1528 1526 1525 1523 1521 1519 1518 1516 1515 1513 1512 1510 1509 1508 1506
1499 1502 1506 1509 1512 1514 1517 1519 1521 1524 1526 1528 1530 1531 1533 1533 1534 1536 1537 1539 1541 1542 1543 1544 1545 1546 1547 1548 1549 1550 1551 1551 1552 1554 1554 1555 1556 1556 1556 1555 1555 1555 1555 1554 1554 1554 1553 1553 1552 1553 1552 1552 1551 1550 1549 1548 1548 1547 1546 1545 1543 1542 1540 1539 1537 1536 1535 1534 1533 1531 1529 1528 1526 1524 1522 1521 1519 1518 1517 1516 1515 1514 1512 1511 1510
1499 1503 1506 1509 1512 1514 1516 1519 1521 1523 1526 1528 1530 1531 1533 1534 1535 1537 1539 1540 1541 1543 1544 1545 1546 1547 1548 1549 1550 1551 1552 1552 1553 1554 1555 1556 1557 1557 1557 1556 1556 1557 1556 1556 1555 1555 1555 1555 1554 1554 1554 1553 1552 1551 1550 1550 1550 1549 1548 1546 1545 1543 1542 1541 1540 1539 1538 1536 1534 1532 1530 1528 1527 1525 1523 1522 1521 1520 1520 1519 1518 1516 1515 1514 1512
1500 1503 1506 1509 1512 1514 1516 1519 1521 1523 1526 1528 1530 1531 1533 1535 1537 1538 1540 1541 1542 1543 1545 1546 1547 1548 1549 1550 1551 1552 1553 1554 1555 1555 1556 1557 1557 1558 1558 1558 1558 1558 1557 1557 1557 1556 1556 1556 1556 1556 1555 1554 1554 1553 1553 1553 1552 1551 1550 1548 1547 1546 1545 1544 1543 1542 1540 1538 1535 1533 1531 1530 1529 1527 1526 1525 1524 1523 1522 1521 1520 1519 1518 1516 1515
1500 1503 1506 1510 1512 1515 1517 1519 1521 1523 1526 1528 1530 1532 1534 1536 1538 1539 1541 1543 1543 1544 1545 1546 1548 1549 1550 1551 1552 1553 1554 1555 1556 1557 1557 1557 1557 1558 1559 1559 1559 1559 1558 1558 1558 1558 1558 1558 1558 1557 1556 1556 1556 1555 1555 1555 1554 1553 1552 1551 1549 1548 1547 1546 1545 1544 1541 1538 1537 1535 1533 1532 1531 1530 1529 1528 1527 1526 1525 1524 1523 1522 1520 1519 1518